Location: Gesvres
(49.0440°N, 2.8518°E)
Time: 07:04:06
(UTC+00:00)

Meteor 2-17 Rocket - Pass Details

Date: 28 January 2023
Orbit: 935 x 956 km, 82.5° (Epoch: 24 March)

Event Time Altitude Azimuth Distance (km) Brightness Sun altitude
Rises 17:44:58 0° 350° (N) 3,644 7.4 -10.9°
Reaches altitude 10° 17:47:28 10° 351° (N) 2,696 6.8 -11.3°
Maximum altitude 17:53:40 83° 80° (E) 970 4.4 -12.3°
Drops below altitude 10° 17:59:49 10° 169° (S) 2,680 6.8 -13.3°
Sets 18:02:18 0° 170° (S) 3,621 7.5 -13.7°
